Home > Weather > Lanchow > Past weeks

Flag for China Past Weather in Lanchow, Gansu, China — Yesterday and Last 2 Weeks

Now
73 °F

Partly sunny.


Feels Like: 77 °F
Forecast: 56 / 71 °F
Wind: 6 mph from East

Location: Lanzhou / Zhongchuan

Current Time: Jun 25, 2016 at 10:12:19 PM

Latest Report: Jun 25, 2016 at 9:00 PM


Visibility: N/A

Pressure: 30.04 "Hg (25.18 "Hg at 1531m altitude)

Humidity: 38%

Dew Point: 46 °F

Location of LanchowLocation

Past Weather in Lanchow — Graph

°F

Lanchow Temperature Yesterday

Maximum temperature yesterday: 68 °F (at 2:00 PM)
Minimum temperature yesterday: 55 °F (at 1:00 AM)
Average temperature yesterday: 61 °F

High & Low Weather Summary for the Past Weeks

 TemperatureHumidityPressure
High88 °F (Jun 17, 1:00 PM)100% (Jun 21, 2:00 AM)30.18 "Hg (Jun 21, 2:00 AM)
Low41 °F (Jun 16, 6:00 AM)10% (Jun 17, 3:00 PM)29.71 "Hg (Jun 16, 6:00 PM)
Average65 °F53%29.99 "Hg
* Reported Jun 10 9:00 PM — Jun 25 9:00 PM, Lanchow, Weather by CustomWeather, © 2016

Note: Actual official high and low records may vary slightly from our data, if they occured in-between our weather recording intervals... More about our weather records

Advertising

Lanchow Weather History for the Previous 24 Hours

Scroll right to see more
 ConditionsComfort  
Time TempWeatherWind HumidityBarometerVisibility
9:00 PM
Sat, Jun 25
73 °FPartly sunny.6 mph38%30.04 "HgN/A
8:00 PM75 °FPartly sunny.8 mph36%30.01 "HgN/A
7:00 PM75 °FPartly sunny.3 mph36%30.01 "HgN/A
6:00 PM77 °FPassing clouds.1 mph34%29.98 "HgN/A
5:00 PM77 °FPassing clouds.6 mph34%30.01 "HgN/A
4:00 PM77 °FPassing clouds.6 mph34%30.01 "HgN/A
3:00 PM75 °FPassing clouds.6 mph36%30.01 "HgN/A
2:00 PM73 °FSunny.3 mph36%30.04 "Hg10 mi
1:00 PM72 °FPassing clouds.8 mph38%30.07 "HgN/A
12:00 PM70 °FSunny.6 mph43%30.07 "Hg10 mi
11:00 AM66 °FPassing clouds.6 mph49%30.09 "HgN/A
10:00 AM64 °FSunny.6 mph56%30.09 "Hg10 mi
9:00 AM61 °FClear.3 mph63%30.12 "Hg4 mi
8:00 AM59 °FFog.1 mph72%30.12 "Hg3 mi
7:00 AM57 °FFog.1 mph77%30.09 "Hg2 mi
6:00 AM55 °FFog.6 mph82%30.09 "Hg2 mi
5:00 AM55 °FPassing clouds.1 mph82%30.09 "Hg5 mi
4:00 AM57 °FPassing clouds.1 mph77%30.09 "HgN/A
3:00 AM55 °FPassing clouds.1 mph88%30.09 "HgN/A
2:00 AM57 °FPassing clouds.1 mph72%30.12 "HgN/A
1:00 AM57 °FPassing clouds.No wind72%30.12 "HgN/A
12:00 AM59 °FPassing clouds.1 mph68%30.15 "HgN/A
11:00 PM
Fri, Jun 24
59 °FPassing clouds.1 mph63%30.15 "HgN/A
10:00 PM61 °FPassing clouds.6 mph63%30.15 "HgN/A
Weather by CustomWeather, © 2016

See weather overviewHow to use our weather pages